Date String (YYYY-MM-DD hh:mm:ss) UTC,Instrument flags,absolute air pressure of the measurement (hPa),sample flow rate (lpm),inlet stack bypass flow (lpm),air temperature of the measurement (°C),ambient temperature measured by the external sensor (°C),aerosol sample conditioner tube jacket temperature (°C),OPC LED temperature (°C),internal box temperature (°C),relative humidity of the measurement (%),span deviation,mass concentration of particles derived from Lorenz-Mie calculation of OPC scattering (μg/m³),mass concentration of particles derived from Lorenz-Mie calculation of OPC scattering (μg/m³),mass concentration of particles derived from Lorenz-Mie calculation of OPC scattering (μg/m³)
DateTimeUTC,F1_M11,P_M11,Q1_M11,Q2_M11,T1_M11,T2_M11,T3_M11,T4_M11,T5_M11,U1_M11,ZSPAN_M11,X0_M11,X2_M11,X1_M11
2023-12-06 10:00:00,SystemResetWarning,0834.4,5.01,000.00,024.3,023.3,000.0,032.7,025.6,12.6,0000.0,0000.25,0000.19,0000.16
2023-12-06 10:01:00,SystemResetWarning,0834.4,5.00,000.00,024.3,023.3,000.0,032.7,025.6,12.7,0000.0,0000.23,0000.17,0000.15
2023-12-06 10:02:00,SystemResetWarning,0834.4,5.00,000.00,024.3,023.3,000.0,032.7,025.6,12.5,0000.0,0000.22,0000.17,0000.14
2023-12-06 10:03:00,SystemResetWarning,0834.4,5.00,000.00,024.3,023.3,000.0,032.7,025.6,12.4,0000.0,0000.21,0000.16,0000.14
2023-12-06 10:04:00,SystemResetWarning,0834.4,4.99,000.00,024.3,023.3,000.0,032.7,025.6,12.5,0000.0,0000.20,0000.15,0000.13
2023-12-06 10:05:00,SystemResetWarning,0834.4,4.99,000.00,024.3,023.3,000.0,032.7,025.6,12.6,0000.0,0000.20,0000.15,0000.12
2023-12-06 10:06:00,SystemResetWarning,0834.4,5.00,000.00,024.3,023.3,000.0,032.7,025.6,12.6,0000.0,0000.20,0000.15,0000.12
2023-12-06 10:07:00,SystemResetWarning,0834.5,5.01,000.00,024.3,023.3,000.0,032.7,025.6,12.6,0000.0,0000.19,0000.14,0000.12
2023-12-06 10:08:00,SystemResetWarning,0834.5,5.01,000.00,024.3,023.3,000.0,032.7,025.6,12.6,0000.0,0000.22,0000.15,0000.12
2023-12-06 10:09:00,SystemResetWarning,0834.4,5.00,000.00,024.3,023.4,000.0,032.7,025.6,12.6,0000.0,0000.22,0000.16,0000.12
2023-12-06 10:10:00,SystemResetWarning,0834.4,4.99,000.00,024.3,023.3,000.0,032.7,025.6,12.6,0000.0,0000.21,0000.16,0000.12
2023-12-06 10:11:00,SystemResetWarning,0834.4,4.99,000.00,024.3,023.3,000.0,032.7,025.6,12.6,0000.0,0000.18,0000.15,0000.13
2023-12-06 10:12:00,SystemResetWarning,0834.4,5.01,000.00,024.3,023.3,000.0,032.7,025.6,12.7,0000.0,0000.19,0000.15,0000.13
2023-12-06 10:13:00,SystemResetWarning,0834.3,5.01,000.00,024.3,023.3,000.0,032.7,025.6,12.9,0000.0,0000.19,0000.16,0000.14
2023-12-06 10:14:00,SystemResetWarning,0834.4,5.00,000.00,024.3,023.3,000.0,032.7,025.5,12.9,0000.0,0000.20,0000.16,0000.14
2023-12-06 10:15:00,SystemResetWarning,0834.3,5.00,000.00,024.3,023.3,000.0,032.7,025.5,12.9,0000.0,0000.22,0000.17,0000.14
2023-12-06 10:16:00,SystemResetWarning,0834.4,4.99,000.00,024.3,023.3,000.0,032.7,025.5,13.0,0000.0,0000.22,0000.17,0000.14
2023-12-06 10:17:00,SystemResetWarning,0834.4,5.00,000.00,024.3,023.3,000.0,032.7,025.5,13.1,0000.0,0000.22,0000.17,0000.15
2023-12-06 10:18:00,SystemResetWarning,0834.6,5.00,000.00,024.2,023.3,000.0,032.7,025.5,13.1,0000.0,0000.23,0000.18,0000.15
2023-12-06 10:19:00,SystemResetWarning,0834.3,5.01,000.00,024.2,023.3,000.0,032.7,025.5,13.1,0000.0,0000.22,0000.18,0000.16
2023-12-06 10:20:00,SystemResetWarning,0834.4,5.01,000.00,024.2,023.3,000.0,032.7,025.5,12.8,0000.0,0000.24,0000.19,0000.18
2023-12-06 10:21:00,SystemResetWarning,0834.3,5.00,000.00,024.2,023.3,000.0,032.7,025.5,12.3,0000.0,0000.28,0000.23,0000.20
2023-12-06 10:22:00,SystemResetWarning,0834.2,5.00,000.00,024.2,023.3,000.0,032.7,025.5,12.2,0000.0,0000.37,0000.26,0000.22
2023-12-06 10:23:00,SystemResetWarning,0834.2,5.00,000.00,024.2,023.2,000.0,032.6,025.5,12.2,0000.0,0000.42,0000.27,0000.23
2023-12-06 10:24:00,SystemResetWarning,0834.2,5.00,000.00,024.2,023.2,000.0,032.6,025.5,12.2,0000.0,0000.42,0000.28,0000.24
2023-12-06 10:25:00,SystemResetWarning,0834.1,5.00,000.00,024.2,023.2,000.0,032.6,025.5,12.2,0000.0,0000.45,0000.30,0000.26
2023-12-06 10:26:00,SystemResetWarning,0834.1,5.00,000.00,024.2,023.2,000.0,032.6,025.5,12.2,0000.0,0000.49,0000.34,0000.30
2023-12-06 10:27:00,SystemResetWarning,0834.1,5.00,000.00,024.2,023.2,000.0,032.6,025.5,12.1,0000.0,0000.55,0000.39,0000.34
2023-12-06 10:28:00,SystemResetWarning,0834.2,5.00,000.00,024.2,023.2,000.0,032.6,025.5,12.1,0000.0,0000.87,0000.45,0000.39
2023-12-06 10:29:00,SystemResetWarning,0834.2,4.99,000.00,024.2,023.2,000.0,032.6,025.5,12.2,0000.0,0001.24,0000.49,0000.42
2023-12-06 10:30:00,SystemResetWarning,0834.2,5.00,000.00,024.2,023.2,000.0,032.6,025.5,12.4,0000.0,0001.23,0000.49,0000.42
2023-12-06 10:31:00,SystemResetWarning,0834.2,5.00,000.00,024.2,023.2,000.0,032.6,025.5,12.5,0000.0,0001.22,0000.48,0000.41
2023-12-06 10:32:00,SystemResetWarning,0834.2,5.00,000.00,024.2,023.1,000.0,032.6,025.5,12.3,0000.0,0001.18,0000.45,0000.39
2023-12-06 10:33:00,SystemResetWarning,0834.2,5.00,000.00,024.2,023.1,000.0,032.6,025.5,12.2,0000.0,0001.09,0000.42,0000.37
2023-12-06 10:34:00,SystemResetWarning,0834.2,5.00,000.00,024.2,023.2,000.0,032.6,025.5,12.4,0000.0,0001.03,0000.41,0000.37
2023-12-06 10:35:00,SystemResetWarning,0834.2,5.00,000.00,024.2,023.2,000.0,032.6,025.5,12.8,0000.0,0001.03,0000.40,0000.36
2023-12-06 10:36:00,SystemResetWarning,0834.1,5.00,000.00,024.2,023.2,000.0,032.6,025.5,13.0,0000.0,0001.00,0000.37,0000.33
2023-12-06 10:37:00,SystemResetWarning,0834.1,5.00,000.00,024.2,023.2,000.0,032.6,025.5,12.7,0000.0,0000.95,0000.33,0000.30
2023-12-06 10:38:00,SystemResetWarning,0834.1,5.00,000.00,024.2,023.2,000.0,032.6,025.5,12.7,0000.0,0000.88,0000.28,0000.26
2023-12-06 10:39:00,SystemResetWarning,0834.2,4.99,000.00,024.2,023.3,000.0,032.5,025.5,12.9,0000.0,0000.65,0000.23,0000.21
2023-12-06 10:40:00,SystemResetWarning,0834.2,5.00,000.00,024.2,023.3,000.0,032.6,025.5,13.1,0000.0,0000.28,0000.21,0000.19
2023-12-06 10:41:00,SystemResetWarning,0834.1,5.01,000.00,024.2,023.3,000.0,032.6,025.5,13.1,0000.0,0000.29,0000.22,0000.18
2023-12-06 10:42:00,SystemResetWarning,0834.2,5.01,000.00,024.2,023.3,000.0,032.5,025.5,13.0,0000.0,0000.35,0000.23,0000.19
2023-12-06 10:43:00,SystemResetWarning,0834.2,5.01,000.00,024.2,023.3,000.0,032.6,025.5,12.8,0000.0,0000.37,0000.25,0000.19
2023-12-06 10:44:00,SystemResetWarning,0834.2,5.00,000.00,024.2,023.3,000.0,032.6,025.5,12.8,0000.0,0000.42,0000.28,0000.21
2023-12-06 10:45:00,SystemResetWarning,0834.1,4.99,000.00,024.2,023.3,000.0,032.6,025.5,12.6,0000.0,0000.47,0000.32,0000.24
2023-12-06 10:46:00,SystemResetWarning,0834.1,5.00,000.00,024.2,023.4,000.0,032.6,025.5,12.7,0000.0,0000.53,0000.36,0000.26
2023-12-06 10:47:00,SystemResetWarning,0834.1,4.99,000.00,024.2,023.4,000.0,032.6,025.5,12.9,0000.0,0000.56,0000.38,0000.29
2023-12-06 10:48:00,SystemResetWarning,0834.2,4.99,000.00,024.3,023.4,000.0,032.6,025.5,13.0,0000.0,0000.61,0000.42,0000.32
2023-12-06 10:49:00,SystemResetWarning,0834.2,5.00,000.00,024.3,023.4,000.0,032.6,025.6,13.1,0000.0,0000.77,0000.49,0000.37
2023-12-06 10:50:00,SystemResetWarning,0834.2,5.00,000.00,024.3,023.3,000.0,032.6,025.5,13.1,0000.0,0000.85,0000.54,0000.42
2023-12-06 10:51:00,SystemResetWarning,0834.2,5.01,000.00,024.2,023.3,000.0,032.6,025.5,13.1,0000.0,0000.86,0000.57,0000.45
2023-12-06 10:52:00,SystemResetWarning,0834.2,5.01,000.00,024.2,023.3,000.0,032.6,025.5,13.1,0000.0,0000.87,0000.58,0000.48
2023-12-06 10:53:00,SystemResetWarning,0834.2,5.01,000.00,024.2,023.3,000.0,032.6,025.5,13.2,0000.0,0000.87,0000.61,0000.51
2023-12-06 10:54:00,SystemResetWarning,0834.2,5.01,000.00,024.2,023.3,000.0,032.6,025.5,13.2,0000.0,0000.93,0000.64,0000.53
2023-12-06 10:55:00,SystemResetWarning,0834.2,5.00,000.00,024.2,023.3,000.0,032.6,025.5,13.2,0000.0,0000.93,0000.64,0000.54
2023-12-06 10:56:00,SystemResetWarning,0834.2,5.00,000.00,024.2,023.3,000.0,032.6,025.5,13.2,0000.0,0000.97,0000.68,0000.55
2023-12-06 10:57:00,SystemResetWarning,0834.2,5.00,000.00,024.3,023.3,000.0,032.6,025.5,13.2,0000.0,0000.97,0000.70,0000.57
2023-12-06 10:58:00,SystemResetWarning,0834.2,5.00,000.00,024.3,023.3,000.0,032.6,025.5,13.3,0000.0,0001.02,0000.73,0000.61
2023-12-06 10:59:00,SystemResetWarning,0834.2,4.99,000.00,024.2,023.3,000.0,032.6,025.5,13.3,0000.0,0001.03,0000.75,0000.63
